Total_Precipitation_Accumulation
0.07 0.08 0.07 0.08 0.06 0.03 0.00 0.00 0.00 0.00 0.00 0.00 0.00 0.00 0.00 0.00 0.00 0.00 0.00 0.00 0.01 0.02 0.05 0.14 0.21 0.24 0.29 0.29 0.26 0.23 0.21 0.22 0.25 0.27 0.31 0.30 0.28 0.27 0.27 0.28 0.30 0.34 0.38 0.38 0.38 0.36 0.32 0.33 0.37
0.08 0.10 0.10 0.09 0.05 0.01 0.00 0.00 0.00 0.00 0.00 0.00 0.00 0.00 0.00 0.00 0.00 0.00 0.00 0.00 0.00 0.01 0.03 0.08 0.19 0.23 0.29 0.30 0.28 0.25 0.23 0.24 0.25 0.26 0.28 0.31 0.33 0.31 0.29 0.28 0.33 0.38 0.44 0.49 0.44 0.37 0.37 0.38 0.39
0.13 0.14 0.11 0.08 0.03 0.00 0.00 0.00 0.00 0.00 0.00 0.00 0.00 0.00 0.00 0.00 0.00 0.00 0.00 0.00 0.00 0.01 0.03 0.09 0.19 0.24 0.29 0.31 0.32 0.31 0.30 0.28 0.28 0.28 0.27 0.28 0.30 0.31 0.30 0.30 0.33 0.37 0.41 0.44 0.44 0.41 0.41 0.38 0.34
0.17 0.21 0.15 0.08 0.02 0.00 0.00 0.00 0.00 0.00 0.00 0.00 0.00 0.00 0.00 0.00 0.00 0.00 0.00 0.00 0.00 0.01 0.03 0.09 0.19 0.27 0.31 0.34 0.38 0.37 0.36 0.36 0.36 0.34 0.32 0.31 0.31 0.31 0.30 0.31 0.30 0.29 0.32 0.36 0.38 0.39 0.40 0.40 0.36
0.21 0.25 0.18 0.08 0.01 0.00 0.00 0.00 0.00 0.00 0.00 0.00 0.00 0.00 0.00 0.00 0.00 0.00 0.00 0.00 0.01 0.02 0.04 0.10 0.22 0.31 0.34 0.37 0.40 0.41 0.42 0.45 0.45 0.44 0.42 0.38 0.36 0.34 0.33 0.35 0.31 0.25 0.25 0.29 0.33 0.36 0.38 0.41 0.39
0.24 0.28 0.18 0.06 0.01 0.00 0.00 0.01 0.01 0.01 0.01 0.00 0.01 0.00 0.00 0.00 0.00 0.00 0.01 0.01 0.01 0.02 0.05 0.13 0.28 0.35 0.37 0.38 0.43 0.45 0.46 0.51 0.51 0.51 0.49 0.44 0.40 0.39 0.40 0.42 0.38 0.31 0.25 0.24 0.25 0.27 0.33 0.36 0.34
0.23 0.23 0.13 0.05 0.02 0.01 0.01 0.01 0.01 0.01 0.01 0.01 0.01 0.01 0.00 0.00 0.01 0.01 0.02 0.02 0.03 0.04 0.08 0.14 0.27 0.37 0.41 0.44 0.46 0.48 0.51 0.53 0.54 0.54 0.54 0.50 0.42 0.41 0.43 0.45 0.40 0.36 0.31 0.26 0.23 0.22 0.24 0.25 0.27
0.23 0.26 0.15 0.07 0.05 0.03 0.01 0.02 0.01 0.01 0.01 0.01 0.01 0.01 0.01 0.01 0.02 0.02 0.03 0.05 0.07 0.08 0.12 0.17 0.27 0.36 0.41 0.46 0.51 0.51 0.53 0.54 0.55 0.56 0.56 0.51 0.44 0.42 0.41 0.39 0.37 0.36 0.37 0.33 0.26 0.23 0.22 0.19 0.18
0.32 0.34 0.16 0.06 0.05 0.04 0.02 0.03 0.02 0.02 0.01 0.01 0.01 0.01 0.01 0.01 0.03 0.06 0.08 0.12 0.14 0.16 0.19 0.23 0.32 0.40 0.44 0.47 0.51 0.54 0.56 0.56 0.55 0.55 0.53 0.53 0.48 0.44 0.42 0.38 0.36 0.36 0.36 0.32 0.28 0.25 0.22 0.18 0.14
0.41 0.35 0.14 0.05 0.04 0.05 0.04 0.04 0.04 0.04 0.03 0.01 0.01 0.01 0.01 0.03 0.06 0.07 0.08 0.13 0.18 0.19 0.22 0.27 0.35 0.41 0.48 0.49 0.54 0.58 0.54 0.52 0.50 0.46 0.46 0.47 0.47 0.43 0.39 0.37 0.38 0.40 0.39 0.36 0.33 0.29 0.23 0.19 0.16
0.31 0.24 0.11 0.06 0.06 0.07 0.08 0.07 0.06 0.07 0.06 0.02 0.02 0.02 0.03 0.05 0.08 0.10 0.10 0.11 0.17 0.19 0.24 0.29 0.37 0.46 0.51 0.51 0.53 0.55 0.51 0.50 0.49 0.46 0.49 0.52 0.53 0.49 0.47 0.44 0.43 0.42 0.42 0.45 0.46 0.44 0.35 0.33 0.32
0.23 0.15 0.11 0.09 0.08 0.10 0.11 0.11 0.10 0.10 0.06 0.03 0.03 0.03 0.05 0.07 0.09 0.11 0.12 0.13 0.18 0.24 0.27 0.31 0.39 0.49 0.54 0.55 0.55 0.54 0.49 0.46 0.46 0.44 0.48 0.54 0.54 0.50 0.47 0.46 0.43 0.42 0.43 0.44 0.48 0.49 0.43 0.38 0.33
0.24 0.16 0.12 0.12 0.12 0.12 0.12 0.12 0.11 0.11 0.06 0.04 0.04 0.04 0.05 0.07 0.08 0.11 0.13 0.15 0.20 0.24 0.29 0.33 0.38 0.48 0.55 0.60 0.61 0.59 0.51 0.45 0.42 0.41 0.41 0.42 0.44 0.45 0.41 0.37 0.34 0.34 0.35 0.36 0.36 0.36 0.38 0.37 0.34
0.25 0.20 0.15 0.13 0.15 0.15 0.14 0.13 0.12 0.09 0.07 0.07 0.07 0.06 0.06 0.06 0.07 0.11 0.15 0.17 0.20 0.24 0.28 0.34 0.40 0.47 0.57 0.60 0.64 0.64 0.60 0.52 0.47 0.42 0.38 0.37 0.38 0.37 0.34 0.30 0.27 0.25 0.24 0.24 0.23 0.21 0.22 0.23 0.27
0.26 0.27 0.23 0.16 0.15 0.16 0.18 0.16 0.09 0.06 0.08 0.11 0.10 0.08 0.07 0.06 0.07 0.08 0.13 0.17 0.19 0.23 0.31 0.36 0.43 0.49 0.58 0.62 0.66 0.69 0.70 0.67 0.59 0.48 0.42 0.37 0.37 0.38 0.35 0.30 0.27 0.23 0.22 0.23 0.22 0.19 0.17 0.17 0.19
0.38 0.41 0.34 0.18 0.15 0.18 0.29 0.21 0.07 0.05 0.09 0.12 0.12 0.09 0.08 0.07 0.07 0.07 0.10 0.16 0.22 0.25 0.32 0.39 0.44 0.52 0.58 0.67 0.72 0.71 0.75 0.71 0.66 0.58 0.51 0.43 0.39 0.38 0.38 0.36 0.31 0.27 0.26 0.27 0.28 0.24 0.21 0.20 0.18
0.55 0.51 0.30 0.17 0.16 0.22 0.31 0.21 0.08 0.09 0.10 0.11 0.13 0.11 0.09 0.08 0.07 0.08 0.09 0.13 0.21 0.27 0.33 0.41 0.44 0.50 0.58 0.68 0.79 0.82 0.80 0.77 0.71 0.65 0.59 0.52 0.47 0.41 0.38 0.39 0.37 0.34 0.32 0.30 0.31 0.28 0.26 0.25 0.24
0.51 0.37 0.25 0.17 0.17 0.23 0.25 0.20 0.12 0.12 0.13 0.11 0.11 0.11 0.10 0.09 0.08 0.09 0.11 0.13 0.19 0.27 0.35 0.42 0.46 0.52 0.63 0.75 0.83 0.94 0.91 0.82 0.75 0.72 0.66 0.61 0.55 0.49 0.43 0.40 0.39 0.39 0.39 0.37 0.34 0.33 0.32 0.30 0.27
0.39 0.32 0.26 0.16 0.15 0.23 0.21 0.16 0.12 0.12 0.13 0.11 0.10 0.10 0.09 0.09 0.08 0.10 0.14 0.17 0.21 0.29 0.37 0.43 0.48 0.56 0.67 0.74 0.81 0.83 0.89 0.85 0.75 0.67 0.69 0.67 0.62 0.55 0.51 0.47 0.42 0.43 0.42 0.40 0.36 0.33 0.33 0.30 0.28
0.43 0.41 0.27 0.19 0.18 0.24 0.21 0.13 0.09 0.09 0.11 0.10 0.09 0.10 0.08 0.08 0.09 0.09 0.14 0.21 0.24 0.28 0.36 0.44 0.47 0.52 0.59 0.60 0.66 0.74 0.75 0.77 0.77 0.69 0.66 0.69 0.66 0.59 0.55 0.53 0.46 0.41 0.40 0.38 0.37 0.34 0.32 0.29 0.25
0.40 0.38 0.27 0.23 0.21 0.25 0.24 0.19 0.08 0.06 0.07 0.08 0.08 0.08 0.07 0.08 0.10 0.09 0.12 0.20 0.24 0.27 0.34 0.40 0.47 0.48 0.55 0.60 0.69 0.78 0.82 0.80 0.81 0.78 0.71 0.67 0.65 0.61 0.55 0.50 0.48 0.44 0.40 0.37 0.35 0.33 0.33 0.33 0.28
0.38 0.26 0.24 0.26 0.35 0.39 0.31 0.32 0.10 0.07 0.08 0.09 0.09 0.09 0.08 0.09 0.10 0.09 0.10 0.17 0.22 0.25 0.33 0.39 0.48 0.55 0.55 0.63 0.71 0.69 0.70 0.72 0.65 0.63 0.64 0.67 0.67 0.61 0.56 0.52 0.47 0.45 0.44 0.41 0.36 0.33 0.32 0.34 0.35
0.31 0.24 0.29 0.31 0.40 0.46 0.30 0.34 0.12 0.06 0.11 0.13 0.14 0.12 0.10 0.10 0.10 0.09 0.09 0.13 0.20 0.26 0.33 0.40 0.46 0.58 0.61 0.61 0.66 0.65 0.61 0.62 0.63 0.64 0.66 0.67 0.68 0.68 0.59 0.54 0.50 0.44 0.42 0.41 0.40 0.37 0.37 0.37 0.38
0.31 0.40 0.52 0.54 0.69 0.78 0.29 0.26 0.15 0.10 0.15 0.14 0.12 0.13 0.14 0.11 0.12 0.11 0.09 0.13 0.19 0.26 0.33 0.37 0.45 0.54 0.63 0.63 0.66 0.65 0.61 0.60 0.66 0.69 0.73 0.72 0.74 0.75 0.69 0.59 0.53 0.46 0.40 0.39 0.40 0.40 0.39 0.39 0.38
0.53 0.84 1.24 1.32 1.29 0.76 0.15 0.16 0.16 0.11 0.11 0.13 0.11 0.11 0.14 0.15 0.15 0.14 0.13 0.15 0.18 0.25 0.34 0.36 0.39 0.50 0.61 0.64 0.66 0.65 0.60 0.58 0.61 0.65 0.71 0.70 0.72 0.75 0.74 0.67 0.60 0.52 0.44 0.39 0.41 0.44 0.45 0.42 0.42
0.58 0.73 0.99 1.00 0.70 0.27 0.09 0.11 0.11 0.08 0.05 0.06 0.06 0.06 0.08 0.12 0.17 0.17 0.15 0.18 0.19 0.23 0.31 0.36 0.37 0.44 0.56 0.59 0.61 0.64 0.62 0.58 0.58 0.60 0.64 0.68 0.65 0.64 0.67 0.69 0.66 0.56 0.49 0.46 0.45 0.46 0.46 0.47 0.49
0.52 0.54 0.47 0.63 0.46 0.27 0.15 0.10 0.09 0.06 0.04 0.04 0.06 0.08 0.08 0.08 0.13 0.17 0.17 0.20 0.22 0.24 0.28 0.35 0.38 0.43 0.53 0.56 0.57 0.61 0.64 0.62 0.56 0.56 0.58 0.63 0.62 0.57 0.59 0.66 0.71 0.70 0.61 0.54 0.52 0.50 0.46 0.47 0.49
0.47 0.52 0.63 0.90 0.75 0.40 0.18 0.12 0.14 0.10 0.07 0.04 0.06 0.09 0.09 0.09 0.12 0.15 0.14 0.19 0.24 0.26 0.27 0.31 0.39 0.44 0.51 0.56 0.57 0.61 0.64 0.64 0.59 0.58 0.58 0.58 0.60 0.59 0.57 0.59 0.67 0.71 0.73 0.69 0.63 0.59 0.53 0.51 0.49
0.48 0.64 0.88 0.92 0.67 0.52 0.30 0.19 0.18 0.14 0.09 0.07 0.07 0.09 0.11 0.09 0.12 0.13 0.13 0.17 0.24 0.28 0.28 0.29 0.34 0.44 0.53 0.57 0.58 0.62 0.67 0.67 0.66 0.64 0.59 0.57 0.57 0.63 0.64 0.61 0.66 0.72 0.73 0.73 0.76 0.73 0.67 0.63 0.58
0.43 0.55 0.70 0.91 0.69 0.40 0.34 0.24 0.18 0.13 0.09 0.07 0.07 0.09 0.11 0.11 0.13 0.12 0.12 0.16 0.21 0.24 0.27 0.29 0.32 0.39 0.50 0.60 0.61 0.62 0.66 0.68 0.69 0.74 0.70 0.65 0.59 0.60 0.65 0.68 0.69 0.76 0.79 0.77 0.79 0.81 0.81 0.83 0.77